Location: Unnamed
(51.5169°N, 0.1311°W)
Time: 21:34:11
(UTC+01:00)

Tiros 1 - Pass Details

Date: 09 August 2024
Orbit: 623 x 655 km, 48.4° (Epoch: 16 September)

Event Time Altitude Azimuth Distance (km) Brightness Sun altitude
Rises 12:31:06 0° 278° (W) 2,974 10.4 53.4°
Reaches altitude 10° 12:33:56 10° 263° (W) 2,056 9.8 53.5°
Maximum altitude 12:37:25 21° 215° (SW) 1,465 9.7 53.7°
Drops below altitude 10° 12:40:53 10° 167° (SSE) 2,034 10.5 53.8°
Sets 12:43:40 0° 151° (SSE) 2,933 11.0 53.8°
